Wind_Speed
39 40 41 42 43 44 41 36 33 32 33 34 36 37 37 37 36 35 34 32 33 33 32 31 31 30 29 28 27 26 24 23 22 20 19 18 17 15 14 13 12 11 10 9 9 9 9 9 10
43 44 45 46 47 45 40 36 35 34 37 37 38 39 38 39 38 36 35 33 34 34 34 33 32 31 31 30 29 27 26 24 23 22 20 19 18 17 16 14 13 12 11 10 10 10 10 11 11
46 48 49 50 49 46 41 38 37 39 40 40 41 41 40 39 39 37 36 35 34 35 35 35 34 33 32 31 30 29 27 26 24 23 22 21 20 18 17 16 14 13 12 12 11 11 11 11 11
49 51 53 54 51 45 43 41 41 42 43 43 43 43 42 40 40 39 38 37 36 36 36 36 35 34 33 32 31 30 29 27 26 25 23 22 21 20 18 17 16 15 14 13 12 12 12 12 12
52 54 56 56 52 47 45 44 44 45 45 45 46 45 44 42 42 41 40 39 37 37 36 37 36 35 35 33 32 31 30 29 28 26 25 24 22 21 20 19 18 16 15 14 13 13 13 13 13
56 57 59 58 53 50 48 47 47 48 47 47 48 48 46 44 43 42 41 40 39 38 37 38 38 37 36 35 33 32 31 30 29 28 26 25 24 23 21 20 19 18 16 15 15 14 14 14 14
57 60 61 59 56 53 50 49 50 51 50 49 50 51 48 46 45 44 43 42 41 40 39 39 39 38 37 36 34 33 33 31 30 29 27 26 25 24 23 21 20 19 18 17 16 15 15 15 15
58 61 62 60 58 55 52 52 52 53 53 52 53 53 49 48 47 47 46 45 43 42 41 40 39 38 38 37 36 34 33 32 31 30 28 28 27 26 24 23 21 20 19 18 17 17 16 16 15
59 62 63 60 58 56 54 54 55 55 56 55 55 54 52 51 49 49 48 46 45 43 42 41 40 39 39 38 37 36 35 34 32 31 30 29 28 27 26 24 23 22 20 19 18 18 17 17 16
59 62 60 58 57 57 56 56 56 58 58 57 56 55 54 53 52 50 49 48 46 44 43 42 41 41 40 39 38 37 36 35 34 33 31 30 29 28 27 26 24 23 22 20 19 19 18 18 18
59 60 58 58 57 58 57 57 58 60 59 57 57 56 56 55 54 52 51 49 47 46 45 44 43 42 41 40 39 38 37 36 35 34 33 32 30 29 28 27 26 24 23 22 21 20 19 19 19
58 57 57 57 57 57 58 58 59 60 59 58 59 59 58 58 56 54 53 50 49 48 46 45 45 43 42 41 40 39 39 38 37 35 34 33 32 31 30 28 27 26 24 23 22 21 21 20 20
55 55 55 56 57 57 58 59 59 60 59 60 59 60 60 59 57 56 55 53 51 49 47 46 45 44 43 42 41 40 39 39 38 37 36 35 34 33 32 30 29 27 26 24 23 23 22 21 21
52 53 54 54 55 55 57 57 60 59 60 61 60 60 61 61 59 57 56 54 53 51 49 48 46 45 43 42 41 41 40 39 39 38 37 36 35 34 33 31 29 28 27 26 25 24 22 22 22
49 50 50 50 51 51 54 57 57 56 59 61 61 60 61 62 60 59 56 55 54 52 51 49 47 45 44 43 42 41 40 40 39 38 37 36 35 34 33 32 30 29 28 27 26 25 24 23 23
45 46 46 45 48 49 53 54 52 55 58 60 61 60 61 62 61 60 58 56 55 54 52 51 49 47 46 44 43 42 40 40 39 38 38 37 36 35 34 33 31 30 29 28 27 26 25 24 23
40 41 41 41 44 48 51 51 49 54 57 58 60 60 60 62 62 61 59 57 56 55 54 53 51 49 47 45 44 43 41 40 40 39 38 37 36 35 35 33 32 31 30 29 27 27 26 25 25
37 37 36 35 38 45 49 50 48 51 54 56 58 59 60 61 62 61 60 59 58 57 56 54 52 50 48 47 45 44 42 40 40 39 38 38 37 35 35 34 32 31 30 29 28 28 27 26 26
35 34 33 32 34 39 45 47 47 48 52 54 56 58 59 60 61 62 62 60 59 58 57 55 54 51 49 48 46 44 42 40 39 39 39 38 37 35 35 34 33 32 31 30 29 28 28 27 27
32 33 32 30 32 35 38 42 43 45 48 51 54 56 58 59 61 62 62 61 61 59 58 56 55 53 50 48 46 44 43 41 40 39 39 38 37 36 35 34 33 32 31 30 30 29 28 28 28
31 31 31 29 30 32 36 38 39 41 45 49 52 55 57 58 60 61 61 63 62 60 59 57 55 54 52 49 48 47 45 43 41 39 38 37 36 36 35 34 33 32 31 30 29 29 29 28 28
28 27 28 27 28 29 31 35 36 38 42 47 51 54 56 57 59 60 61 62 62 60 59 57 56 54 53 51 50 48 45 42 40 38 38 38 37 37 36 35 34 33 32 31 30 30 29 29 29
26 26 26 27 27 28 28 33 32 34 38 43 48 52 54 55 57 59 60 61 62 61 59 58 57 55 54 52 50 49 46 43 42 41 40 39 38 37 36 36 35 34 33 32 31 30 30 30 30
24 25 25 26 26 26 24 29 29 30 34 40 45 49 52 54 55 58 60 61 62 62 61 59 58 56 54 53 51 49 47 45 43 42 41 39 39 37 36 36 35 34 33 33 32 31 31 31 31
22 22 22 22 23 23 22 25 25 27 31 37 43 46 49 52 55 57 58 59 62 63 62 60 59 58 55 53 51 50 48 46 43 42 41 40 39 38 37 36 36 35 34 34 33 33 32 32 33
18 18 19 21 22 22 21 22 23 24 28 33 40 45 48 50 53 55 57 58 60 62 62 60 60 59 57 54 51 49 48 47 44 43 41 40 39 39 39 38 37 36 35 35 35 34 34 34 34
17 16 18 20 21 21 21 20 20 22 26 31 37 43 47 48 51 53 55 57 59 60 62 61 59 59 58 56 53 51 49 47 45 44 42 41 40 40 40 39 38 37 36 36 36 35 35 34 35
16 16 17 19 21 21 20 19 18 19 21 27 33 39 44 46 49 51 53 56 58 58 60 61 60 58 57 56 54 52 51 48 46 45 43 42 41 41 41 40 39 38 37 37 36 35 35 36 36
18 17 17 18 20 21 20 17 16 17 19 23 30 36 41 44 47 51 53 55 56 58 58 60 60 59 57 56 55 53 52 50 48 47 44 43 42 41 41 41 40 39 38 37 36 36 36 37 36
19 18 18 19 20 21 21 17 17 17 18 21 26 33 39 42 45 48 52 54 56 58 59 59 60 58 56 55 54 53 52 52 49 47 45 44 42 41 41 41 40 39 38 37 36 36 36 37 37
Wind_Direction
273 271 269 267 266 265 264 264 261 256 254 251 249 248 247 246 246 246 246 241 240 239 238 236 235 233 232 231 229 228 226 226 226 225 226 228 229 230 233 236 241 248 256 268 280 288 290 290 293
273 271 268 266 265 266 265 264 261 256 252 250 249 248 247 246 245 245 244 241 239 238 236 235 234 233 231 230 229 228 226 226 227 227 227 228 230 232 233 236 241 247 254 264 272 279 283 286 289
273 270 268 266 265 267 267 263 258 253 250 249 249 248 247 246 245 243 242 241 238 236 235 234 233 232 231 229 228 227 227 227 228 228 229 229 230 232 234 236 241 245 252 259 266 272 278 282 285
272 270 267 266 266 266 264 260 255 252 249 248 247 247 246 245 244 242 240 239 238 236 234 233 232 231 229 228 227 227 227 228 228 229 229 229 230 232 234 237 240 244 249 256 261 267 275 280 284
271 269 268 266 265 264 261 257 253 251 248 247 246 246 244 243 242 241 239 237 236 235 234 232 231 229 228 227 226 226 227 228 229 229 229 230 230 232 234 236 239 243 248 253 259 263 272 278 281
270 269 268 267 264 262 258 255 252 249 246 245 244 244 242 241 241 239 237 236 234 233 232 231 229 228 226 226 226 226 227 227 228 229 229 230 230 232 234 236 238 241 246 252 256 260 268 275 276
270 268 267 266 263 260 257 254 250 248 245 243 242 242 240 238 238 238 236 235 233 232 231 230 228 227 225 225 226 227 228 228 228 228 229 230 230 231 233 235 238 241 246 250 254 259 266 271 272
270 268 266 265 263 259 256 252 248 246 243 241 241 241 238 236 236 236 235 234 232 231 230 229 228 226 225 225 226 227 228 228 228 228 228 229 230 231 233 235 238 241 245 249 253 258 264 267 270
271 267 266 265 263 259 255 250 246 244 242 239 239 239 237 235 235 235 234 233 232 230 229 228 227 226 225 225 225 226 227 227 227 228 229 230 230 232 234 235 237 241 244 248 252 256 261 265 270
270 268 268 265 262 258 253 249 244 241 240 238 238 237 236 233 232 233 234 233 231 229 228 226 226 226 225 225 225 225 226 227 227 228 230 230 231 232 234 235 237 241 243 247 251 255 259 264 268
271 269 267 263 259 256 252 247 243 240 238 237 236 235 233 232 230 231 231 231 229 227 225 225 224 225 225 225 225 225 225 226 227 229 230 231 231 232 234 235 237 241 243 247 250 253 258 263 267
271 268 264 260 256 254 251 246 242 239 237 235 234 232 231 230 228 228 229 229 227 225 224 223 223 224 225 225 225 225 225 226 227 228 230 230 231 232 234 235 237 241 243 247 249 253 257 262 265
271 266 263 259 254 252 249 246 242 238 235 234 232 231 229 228 226 226 226 226 224 223 222 222 222 223 224 224 224 225 225 226 226 227 229 230 230 232 233 235 237 240 243 247 249 252 256 260 264
272 267 262 258 254 251 248 245 241 237 235 233 231 229 228 226 224 224 224 224 223 222 221 221 221 222 223 224 224 225 225 225 226 227 229 229 231 231 233 235 237 239 242 246 248 251 254 259 265
274 269 263 258 253 250 248 244 240 236 234 232 230 228 226 224 222 222 222 222 221 220 220 220 221 222 222 223 223 224 224 225 226 227 228 228 230 231 233 235 237 239 242 245 248 250 254 259 264
276 271 265 258 252 247 246 244 238 235 233 230 228 226 224 223 221 220 220 219 220 219 218 219 220 221 221 222 223 223 223 224 225 227 227 228 229 231 233 234 237 239 242 245 247 250 254 259 264
278 274 269 258 250 246 245 243 236 233 232 229 227 225 222 220 219 219 218 218 218 218 217 217 218 220 220 221 222 222 222 223 224 226 226 228 229 231 232 233 236 238 241 244 247 250 254 258 264
279 275 269 260 252 248 245 241 236 234 231 228 225 223 221 219 218 217 217 216 216 217 217 216 216 218 219 220 220 221 222 223 224 224 225 227 229 230 232 233 236 238 241 244 247 250 254 258 264
280 274 269 262 255 252 247 242 236 234 231 227 224 222 220 217 216 216 215 214 215 216 216 216 216 216 218 219 220 220 221 223 223 224 225 227 229 230 232 233 235 238 241 244 247 251 255 258 264
282 273 268 264 256 253 250 243 237 234 231 226 222 220 219 217 214 215 214 213 214 214 215 216 216 217 218 219 219 219 220 221 222 223 225 227 228 230 231 232 235 238 242 245 248 252 255 259 264
283 273 267 264 258 254 254 245 236 233 229 225 221 219 218 217 214 213 214 213 213 214 215 215 216 217 218 218 219 219 220 221 222 223 225 226 228 230 231 232 235 239 242 246 249 252 256 260 265
285 274 267 263 260 258 254 252 236 233 228 224 221 218 217 217 215 212 213 213 213 213 215 215 216 217 217 218 219 220 221 222 223 224 225 226 228 230 231 233 236 239 242 246 250 253 258 262 266
288 275 266 262 261 260 257 256 241 233 228 223 221 218 216 217 216 214 214 214 214 213 214 215 214 216 217 217 218 220 220 221 222 223 224 226 228 230 232 234 237 240 243 247 251 254 259 263 267
287 277 269 264 261 262 259 257 246 235 229 223 221 219 216 217 215 215 214 214 214 214 214 213 213 214 217 217 218 219 220 221 222 224 225 227 228 230 232 234 237 240 244 247 251 255 259 263 267
289 281 275 269 264 263 261 257 247 237 230 224 222 220 217 216 216 216 215 214 214 214 214 214 213 214 215 217 217 218 220 221 222 223 225 227 229 231 233 235 238 241 245 248 251 255 260 264 267
293 284 278 275 271 266 260 257 248 241 232 226 223 221 219 217 217 217 217 215 215 216 215 214 215 215 215 217 217 218 219 220 222 223 224 227 229 231 233 235 238 240 244 248 252 256 260 263 266
294 286 280 275 275 272 265 260 250 242 233 226 223 222 220 219 218 217 217 216 215 216 217 216 214 215 216 216 217 218 218 220 222 223 224 226 228 230 233 235 237 240 244 248 252 256 260 263 267
286 286 281 274 273 273 270 263 255 241 234 228 224 223 222 220 219 218 217 217 216 215 216 217 216 215 215 216 217 218 219 220 222 223 225 226 228 230 233 235 238 241 245 249 253 257 261 264 267
280 281 279 272 267 270 271 261 259 250 241 234 228 224 224 222 220 218 218 217 216 215 216 217 217 216 216 216 218 218 219 220 221 223 225 226 228 231 233 236 238 242 246 250 254 258 261 264 267
276 277 274 272 265 263 266 262 260 252 245 239 232 226 225 224 221 220 219 218 217 216 216 216 217 217 217 217 218 219 220 221 222 223 225 227 228 231 233 236 239 242 246 250 254 258 261 264 267
Height
5788 5788 5789 5789 5789 5790 5793 5799 5803 5805 5805 5805 5806 5807 5810 5813 5816 5821 5823 5826 5827 5830 5833 5835 5838 5840 5843 5846 5848 5851 5853 5855 5857 5859 5861 5863 5864 5866 5867 5869 5870 5871 5872 5873 5874 5874 5874 5874 5874
5779 5779 5779 5779 5779 5780 5786 5792 5795 5797 5797 5798 5799 5800 5802 5806 5809 5813 5816 5819 5821 5824 5827 5830 5833 5835 5838 5841 5844 5846 5849 5851 5853 5856 5858 5860 5862 5863 5865 5866 5868 5869 5870 5871 5872 5872 5872 5872 5872
5769 5768 5768 5767 5769 5773 5779 5785 5787 5786 5787 5789 5791 5792 5795 5799 5802 5806 5809 5812 5815 5818 5821 5824 5827 5830 5833 5836 5839 5842 5845 5847 5849 5852 5854 5856 5858 5860 5862 5863 5865 5867 5868 5869 5869 5870 5870 5870 5870
5757 5756 5756 5756 5759 5767 5771 5774 5775 5776 5778 5780 5782 5784 5788 5792 5795 5798 5802 5805 5808 5811 5815 5818 5821 5824 5827 5831 5834 5837 5840 5843 5845 5848 5850 5853 5855 5857 5859 5860 5862 5864 5865 5866 5867 5867 5868 5868 5868
5744 5743 5742 5743 5749 5756 5760 5762 5764 5765 5768 5770 5772 5775 5779 5783 5786 5789 5794 5797 5801 5805 5808 5812 5815 5819 5822 5825 5829 5832 5835 5838 5841 5843 5846 5849 5851 5853 5855 5857 5859 5860 5862 5863 5864 5865 5865 5865 5865
5729 5728 5728 5730 5738 5744 5748 5750 5751 5753 5756 5759 5761 5765 5771 5774 5777 5781 5785 5789 5793 5797 5801 5805 5808 5812 5816 5820 5823 5827 5830 5833 5836 5839 5842 5844 5847 5849 5851 5853 5855 5857 5859 5860 5861 5862 5862 5863 5863
5715 5713 5713 5717 5723 5729 5735 5736 5738 5741 5744 5748 5749 5753 5760 5764 5767 5772 5776 5781 5785 5789 5794 5798 5802 5806 5810 5814 5817 5821 5825 5828 5831 5834 5837 5840 5843 5845 5847 5850 5852 5854 5855 5857 5858 5859 5859 5860 5860
5698 5696 5696 5701 5707 5714 5720 5721 5724 5727 5731 5734 5736 5742 5750 5754 5757 5761 5767 5772 5777 5781 5786 5791 5795 5799 5803 5808 5812 5816 5819 5823 5826 5829 5832 5836 5838 5841 5843 5846 5848 5850 5852 5853 5854 5855 5856 5856 5857
5680 5679 5680 5688 5692 5697 5702 5705 5709 5712 5716 5721 5725 5731 5737 5742 5747 5751 5757 5763 5768 5773 5778 5783 5788 5792 5797 5801 5805 5809 5813 5817 5821 5824 5827 5831 5834 5836 5839 5841 5844 5846 5848 5849 5851 5852 5852 5853 5853
5662 5661 5668 5674 5675 5678 5683 5688 5692 5695 5701 5707 5713 5718 5723 5730 5736 5741 5748 5754 5760 5766 5771 5776 5781 5785 5790 5794 5799 5803 5807 5811 5815 5819 5822 5826 5829 5831 5834 5837 5839 5842 5844 5845 5847 5848 5849 5849 5850
5645 5646 5652 5655 5656 5659 5663 5670 5674 5678 5686 5694 5699 5704 5710 5716 5724 5731 5737 5744 5750 5756 5761 5767 5772 5777 5782 5787 5792 5796 5801 5805 5809 5813 5817 5820 5823 5826 5830 5832 5835 5837 5839 5841 5843 5844 5845 5845 5846
5627 5631 5632 5636 5638 5640 5645 5650 5656 5662 5672 5678 5683 5689 5696 5703 5712 5720 5727 5733 5740 5746 5753 5758 5764 5770 5775 5780 5785 5790 5794 5799 5803 5807 5811 5814 5818 5821 5824 5827 5830 5833 5835 5837 5838 5840 5841 5841 5842
5610 5614 5615 5617 5619 5623 5626 5632 5639 5647 5656 5661 5667 5674 5682 5691 5699 5707 5715 5722 5729 5736 5743 5750 5756 5762 5767 5772 5777 5782 5787 5792 5796 5800 5804 5808 5812 5816 5819 5822 5825 5828 5830 5832 5834 5835 5836 5837 5838
5595 5595 5598 5600 5603 5606 5609 5615 5621 5633 5639 5645 5652 5660 5668 5678 5687 5695 5703 5711 5719 5727 5734 5741 5747 5753 5759 5764 5770 5775 5780 5785 5789 5794 5798 5802 5806 5810 5813 5817 5820 5822 5825 5827 5829 5831 5832 5833 5833
5578 5578 5582 5586 5588 5590 5592 5597 5608 5619 5622 5628 5637 5646 5655 5664 5673 5683 5692 5701 5709 5717 5724 5731 5738 5744 5751 5756 5762 5767 5772 5778 5783 5787 5791 5796 5800 5804 5807 5811 5814 5817 5819 5822 5824 5825 5827 5828 5829
5564 5563 5566 5573 5574 5576 5577 5582 5597 5600 5604 5613 5622 5631 5640 5651 5660 5671 5680 5689 5698 5706 5714 5721 5728 5736 5742 5748 5754 5760 5765 5770 5776 5780 5785 5789 5793 5797 5801 5805 5808 5811 5814 5816 5819 5820 5822 5823 5824
5552 5551 5553 5558 5560 5561 5563 5569 5582 5585 5590 5598 5608 5617 5627 5637 5648 5658 5668 5678 5687 5696 5704 5712 5719 5727 5734 5740 5746 5752 5758 5763 5768 5774 5778 5783 5787 5791 5795 5799 5802 5805 5808 5811 5813 5815 5816 5818 5818
5543 5541 5542 5545 5549 5549 5550 5557 5567 5572 5577 5585 5595 5604 5614 5625 5637 5647 5657 5667 5676 5685 5694 5702 5710 5718 5725 5731 5738 5744 5750 5756 5761 5767 5772 5776 5780 5785 5789 5793 5796 5799 5802 5805 5807 5809 5811 5812 5813
5533 5532 5533 5536 5538 5538 5540 5546 5554 5560 5565 5574 5583 5593 5603 5614 5625 5634 5645 5655 5665 5675 5684 5693 5701 5709 5716 5723 5731 5737 5743 5749 5755 5760 5765 5770 5774 5778 5782 5787 5790 5793 5796 5799 5801 5803 5805 5806 5807
5526 5525 5526 5528 5529 5529 5531 5536 5544 5549 5555 5563 5573 5582 5592 5603 5613 5623 5634 5644 5655 5665 5674 5684 5692 5701 5708 5716 5723 5730 5736 5742 5747 5752 5758 5763 5767 5772 5776 5780 5784 5787 5790 5793 5795 5797 5799 5800 5801
5520 5519 5519 5520 5522 5523 5523 5527 5535 5541 5546 5554 5563 5573 5582 5592 5603 5614 5623 5634 5644 5655 5665 5674 5684 5692 5700 5708 5715 5721 5727 5733 5739 5746 5751 5756 5761 5765 5769 5774 5777 5781 5784 5786 5789 5791 5792 5794 5795
5514 5514 5514 5514 5515 5516 5519 5519 5529 5533 5538 5546 5555 5564 5574 5583 5593 5603 5613 5624 5634 5646 5655 5665 5674 5683 5691 5699 5706 5714 5721 5728 5734 5740 5744 5749 5753 5758 5763 5767 5771 5774 5777 5780 5782 5784 5786 5787 5788
5509 5508 5509 5509 5509 5511 5514 5514 5523 5527 5533 5540 5548 5556 5565 5574 5583 5593 5603 5614 5625 5635 5645 5655 5664 5673 5682 5690 5698 5706 5713 5720 5726 5731 5736 5741 5746 5751 5755 5760 5764 5768 5771 5773 5775 5778 5779 5781 5781
5505 5504 5505 5505 5505 5507 5511 5511 5516 5522 5527 5533 5540 5548 5556 5565 5574 5584 5593 5602 5613 5623 5634 5644 5654 5664 5673 5681 5689 5697 5705 5712 5718 5724 5729 5734 5739 5744 5749 5753 5757 5761 5764 5766 5769 5770 5772 5773 5774
5503 5502 5501 5501 5502 5504 5506 5507 5512 5517 5521 5526 5532 5540 5547 5556 5564 5574 5583 5593 5603 5613 5624 5634 5644 5654 5664 5672 5681 5689 5697 5704 5710 5716 5722 5727 5732 5737 5742 5746 5750 5753 5756 5759 5761 5763 5765 5766 5767
5500 5500 5499 5499 5499 5500 5502 5503 5509 5511 5514 5519 5524 5531 5539 5547 5555 5565 5574 5584 5594 5604 5614 5625 5635 5645 5655 5664 5672 5681 5688 5695 5702 5708 5714 5720 5725 5730 5734 5738 5742 5745 5749 5751 5754 5756 5757 5759 5759
5497 5497 5497 5496 5496 5496 5498 5501 5504 5506 5509 5513 5518 5524 5531 5539 5547 5556 5565 5575 5585 5595 5605 5616 5626 5636 5646 5655 5664 5672 5680 5687 5694 5700 5706 5711 5717 5721 5726 5730 5734 5738 5741 5744 5746 5748 5750 5751 5752
5495 5494 5494 5494 5493 5493 5495 5497 5500 5502 5505 5509 5513 5518 5525 5532 5540 5548 5557 5566 5576 5585 5596 5606 5616 5627 5637 5646 5655 5663 5671 5679 5686 5692 5698 5703 5709 5713 5718 5722 5726 5730 5733 5736 5739 5741 5742 5743 5744
5493 5492 5491 5490 5490 5490 5490 5496 5495 5497 5499 5503 5506 5511 5517 5524 5532 5540 5549 5558 5567 5576 5586 5597 5607 5617 5627 5637 5646 5654 5662 5670 5677 5683 5690 5695 5700 5705 5710 5715 5719 5722 5726 5728 5731 5733 5734 5736 5736
5489 5488 5487 5488 5487 5487 5486 5492 5491 5492 5494 5497 5500 5504 5510 5516 5524 5532 5541 5549 5558 5568 5577 5588 5598 5609 5619 5628 5637 5646 5654 5661 5668 5675 5681 5687 5692 5697 5702 5707 5711 5715 5718 5721 5723 5725 5727 5728 5728